Flag for Afghanistan Weather past 2 weeks in Mazari Sharif, Afghanistan

50 °F


Feels Like: 49 °F
Forecast: 47 / 67 °F
Wind: 3 mph from Southwest

Location: Termez Airport

Current Time: Dec 1, 2015 at 10:07:10 PM

Latest Report: Dec 1, 2015 at 9:00 PM

Visibility: 3 mi

Pressure: 30.18 "Hg

Humidity: 71%

Dew point: 41 °F

Location of Mazari SharifLocation

Historic Weather in Mazari Sharif — Graph


Mazari Sharif temperature yesterday

Maximum temperature yesterday: 64 °F (at 3:00 PM)
Minimum temperature yesterday: 36 °F (at 4:30 AM)
Average temperature yesterday: 48 °F

Past Weeks' High & Low Weather Summary

High73 °F (Nov 18, 1:30 PM)100% (Nov 20, 6:30 AM)30.45 "Hg (Nov 20, 6:30 AM)
Low36 °F (Nov 30, 4:30 AM)23% (Nov 18, 1:30 PM)29.92 "Hg (Nov 18, 8:30 PM)
Average49 °F80%30.20 "Hg
* Reported Nov 16 8:30 PM — Dec 1 8:30 PM, Mazari Sharif, Weather by CustomWeather, © 2015

Note: Actual official high and low records may vary slightly from our data, if they occured in-between our weather recording intervals... More about our weather records


Mazari Sharif weather history for previous 24 hours

Time TempWeatherWind HumidityBarometerVisibility
8:30 PM
Tue, Dec 1
50 °FFog.3 mph71%30.18 "Hg2 mi
8:00 PM50 °FFog.2 mph76%30.18 "Hg3 mi
7:30 PM52 °FClear.3 mph72%30.18 "Hg10 mi
7:00 PM52 °FClear.3 mph72%30.18 "Hg10 mi
6:30 PM55 °FClear.2 mph59%30.18 "Hg10 mi
6:00 PM55 °FClear.No wind59%30.18 "Hg10 mi
5:30 PM57 °FClear.No wind55%30.18 "Hg10 mi
5:00 PM59 °FClear.No wind55%30.18 "Hg10 mi
4:30 PM64 °FSunny.No wind37%30.18 "Hg10 mi
4:00 PM66 °FSunny.No wind35%30.18 "Hg10 mi
3:30 PM68 °FSunny.No wind30%N/A10 mi
3:00 PM68 °FSunny.No wind30%30.18 "Hg10 mi
2:30 PM68 °FSunny.No wind33%30.18 "Hg10 mi
2:00 PM66 °FPassing clouds.1 mph35%30.18 "HgN/A
1:30 PM68 °FSunny.No wind33%30.18 "Hg10 mi
1:00 PM66 °FSunny.No wind35%30.21 "Hg10 mi
12:00 PM64 °FSunny.No wind43%30.21 "Hg10 mi
11:30 AM63 °FPassing clouds.2 mph45%30.24 "HgN/A
11:00 AM61 °FClear.2 mph55%30.24 "Hg4 mi
10:30 AM57 °FClear.3 mph63%30.24 "Hg4 mi
10:00 AM55 °FClear.3 mph67%30.24 "Hg4 mi
9:30 AM52 °FFog.3 mph77%30.24 "Hg3 mi
9:00 AM48 °FFog.5 mph87%30.24 "Hg2 mi
8:30 AM46 °FFog.5 mph93%30.24 "Hg2 mi
8:00 AM43 °FFog.6 mph100%30.24 "Hg2 mi
7:30 AM39 °FFog.3 mph100%30.24 "Hg1 mi
7:00 AM41 °FFog.5 mph93%30.21 "Hg1 mi
6:30 AM39 °FFog.5 mph100%30.21 "Hg1 mi
4:30 AM43 °FFog.3 mph100%30.18 "Hg2 mi
3:30 AM43 °FFog.2 mph100%30.18 "Hg1 mi
2:30 AM45 °FFog.2 mph93%30.18 "Hg3 mi
2:00 AM45 °FFog.2 mph93%30.18 "Hg3 mi
1:30 AM45 °FClear.2 mph93%30.15 "Hg4 mi
1:00 AM46 °FClear.3 mph87%30.15 "Hg4 mi
12:30 AM45 °FFog.3 mph93%30.15 "Hg2 mi
12:00 AM45 °FFog.3 mph93%30.15 "Hg3 mi
11:30 PM
Mon, Nov 30
45 °FFog.3 mph93%30.15 "Hg2 mi
11:00 PM45 °FFog.3 mph93%30.15 "Hg2 mi
10:30 PM45 °FFog.3 mph93%30.15 "Hg2 mi
10:00 PM46 °FFog.No wind87%30.15 "Hg2 mi
Weather by CustomWeather, © 2015

See weather overviewHow to use our weather pages